Regional Weather Roundup
Issued by NWS

Home | Current Version | Previous Version | Graphics & Text | Print | Product List | Glossary On
Versions: 1 2 3 4 5 6 7 8 9 10 11 12 13 14 15 16 17 18 19 20 21 22 23 24 25 26 27 28 29 30 31 32 33 34 35 36 37 38 39 40 41 42 43 44 45 46 47 48 49 50
000
ASUS43 KMKX 230211
RWRWI

WISCONSIN REGIONAL WEATHER ROUNDUP
NATIONAL WEATHER SERVICE MILWAUKEE/SULLIVAN WI
800 PM CST MON DEC 22 2014

NOTE: "FAIR" INDICATES FEW OR NO CLOUDS BELOW 12,000 FEET WITH NO
SIGNIFICANT WEATHER AND/OR OBSTRUCTIONS TO VISIBILITY.

WIZ001-002-006>008-014>016-023>028-230300-
NORTHWEST WISCONSIN

CITY           SKY/WX    TMP DP  RH WIND       PRES   REMARKS
SUPERIOR ARPT  CLOUDY    35  34  96 E7        29.74S FOG     WCI  29
ASHLAND        CLOUDY    34  32  92 NE3       29.76R
HAYWARD        CLOUDY    35  31  85 E6        29.70S FOG     WCI  30
SIREN          CLOUDY    35  32  91 E5        29.68S WCI  31
CUMBERLAND     CLOUDY    34  32  93 E10       29.67R WCI  26
RICE LAKE      CLOUDY    35  32  87 E10       29.69S WCI  27
CHETEK         CLOUDY    35  32  89 E9        29.68R WCI  27
LADYSMITH      CLOUDY    35  32  88 E9        29.71S WCI  28
EAU CLAIRE     MIX PCPN  35  31  85 E13       29.65S WCI  26
MENOMONIE      CLOUDY    36  32  87 E13       29.65S FOG     WCI  27
NEW RICHMOND   CLOUDY    35  33  93 E12G17    29.64S WCI  27
OSCEOLA        CLOUDY    36  35  98 E9        29.67S WCI  29
$$

WIZ003>005-009-010-017-018-230300-
NORTH CENTRAL WISCONSIN

CITY           SKY/WX    TMP DP  RH WIND       PRES   REMARKS
MANITOWISH WTR CLOUDY    32  31  96 SE8       29.74S WCI  25
ARBOR VITAE    LGT SNOW  33  31  92 E12G17    29.74F WCI  24
WOODRUFF       LGT SNOW  33  31  92 E12G17    29.74F WCI  24
RHINELANDER    LGT SNOW  30  29  96 E12       29.74F FOG     WCI  20
EAGLE RIVER    LGT SNOW  31  30  96 E8        29.75F WCI  24
LAND O LAKES   CLOUDY    32  30  94 SE8G16    29.77F FOG     WCI  25
PHILLIPS       LGT SNOW  32  30  92 E9        29.71S WCI  25
TOMAHAWK       CLOUDY    32  30  92 CALM      29.73S FOG
MEDFORD        LGT SNOW  32  31  95 E12G17    29.68S WCI  23
MERRILL        LGT SNOW  32  32  99 E10       29.72F WCI  24
$$

WIZ029-030-035-036-043>047-230300-
CENTRAL WISCONSIN

CITY           SKY/WX    TMP DP  RH WIND       PRES   REMARKS
WAUSAU         LGT SNOW  33  31  92 E15       29.69F FOG     WCI  23
MOSINEE        LGT SNOW  32  32 100 E16       29.70F WCI  21
MARSHFIELD     LGT SNOW  33  31  92 E15       29.67S FOG     WCI  23
STEVENS POINT  LGT SNOW  31  31  97 E12       29.70S WCI  22
WAUPACA        LGT SNOW  34  33  94 E8        29.72S WCI  28
WAUTOMA        MIX PCPN  33  33 100 E10       29.69S FOG     WCI  25
WISC RAPIDS    LGT SNOW  33  30  88 E14       29.69S FOG     WCI  23
CAMP DOUGLAS   LGT SNOW  34  34 100 E9        29.64F FOG     WCI  26
$$

WIZ011>013-019>022-031-037>040-048>050-230300-
NORTHEAST WISCONSIN

CITY           SKY/WX    TMP DP  RH WIND       PRES   REMARKS
ANTIGO         LGT SNOW  31  30  96 E14       29.73F WCI  20
SHAWANO        LGT SNOW  34  33  94 E8        29.76F VSB 3/4 WCI  27
OCONTO         CLOUDY    32  32 100 E6        29.79F WCI  26
STURGEON BAY   CLOUDY    34  30  86 E8        29.81F WCI  27
GREEN BAY      LGT RAIN  34  33  96 MISG      29.76F FOG
MANITOWOC      LGT RAIN  37  35  92 E16       29.75F FOG     WCI  28
APPLETON       LGT SNOW  34  34 100 E8        29.72F WCI  27
CLINTONVILLE   LGT SNOW  32  32 100 E9        29.74F WCI  24
OSHKOSH        LGT RAIN  35  33  92 E10       29.70S FOG     WCI  27
$$

WIZ032>034-041-042-053>061-230300-
SOUTHWEST WISCONSIN

CITY           SKY/WX    TMP DP  RH WIND       PRES   REMARKS
LA CROSSE      CLOUDY    36  33  89 E12       29.62S WCI  28
SPARTA         DRIZZLE   33  33  99 E8        29.64F WCI  26
VIROQUA        CLOUDY    33  33 100 E13G20    29.59S WCI  24
BOSCOBEL       CLOUDY    36  34  92 NE3       29.61S FOG
PRAIRIE DU CHI CLOUDY    36  34  92 E8        29.58F FOG     WCI  30
PLATTEVILLE    CLOUDY    36  35  97 CALM      29.58F
$$

WIZ056-057-062-063-064-067-068-230300-
SOUTH CENTRAL WISCONSIN

CITY           SKY/WX    TMP DP  RH WIND       PRES   REMARKS
REEDSBURG      DRIZZLE   33  33  99 E5        29.62F WCI  29
BARABOO/DELLS  DRIZZLE   33  33  97 E9        29.63F WCI  26
LONE ROCK      CLOUDY    39  34  82 E12       29.62S HAZE    WCI  32
MINERAL POINT  CLOUDY    36  36 100 E9        29.58F FOG     WCI  29
MADISON        DRIZZLE   36  34  92 E7        29.63F FOG     WCI  30
MIDDLETON      CLOUDY    37  37 100 E8        29.63F WCI  30
WATERTOWN      CLOUDY    37  37 100 E9        29.64F FOG     WCI  30
MONROE         FOG       36  36 100 E8        29.59F VSB 1/4 WCI  29
JANESVILLE     CLOUDY    37  36  93 E8        29.62F FOG     WCI  31
$$

WIZ051-052-058>065-066-070>072-230300-
SOUTHEAST WISCONSIN

CITY           SKY/WX    TMP DP  RH WIND       PRES   REMARKS
MILWAUKEE      LGT RAIN  39  37  92 SE16      29.69F FOG     WCI  30
WAUKESHA       LGT RAIN  36  36 100 E12G23    29.67F FOG     WCI  27
MILWAUKEE/TIMM LGT RAIN  37  36  93 SE12G20   29.71S FOG     WCI  30
RACINE         LGT RAIN  39  37  92 SE14      29.70F FOG     WCI  31
BURLINGTON     MIX PCPN  37  37  99 E10       29.65S WCI  30
KENOSHA        LGT RAIN  39  38  96 SE15      29.67F FOG     WCI  31
FOND DU LAC    MIX PCPN  37  34  89 E15       29.68F WCI  28
SHEBOYGAN      LGT RAIN  37  32  82 SE14G21   29.73F WCI  28
WEST BEND      LGT RAIN  36  36 100 E13       29.69F WCI  27
JUNEAU         LGT RAIN  36  35  97 E12       29.67F WCI  28
$$

LSZ147-162-230300-
LAKE SUPERIOR

STATION/POSITION TIME  TEMP    WIND        PRES    WAVE
                       AIR SEA DIR/SP/G            HT/PER
                 (UTC) (F)     (DEG/KT/KT) (MB)    (FT/S)
DEVILS ISLAND    0200   36      90/ 11/ 12 1009.0R
PORT WING        0100   34      60/  4/  7 1007.8
SAXON HARBOR     0100   37        CALM     1007.8S
$$

LMZ867-665-643>646-230300-
LAKE MICHIGAN

STATION/POSITION TIME  TEMP    WIND        PRES    WAVE
                       AIR SEA DIR/SP/G            HT/PER
                 (UTC) (F)     (DEG/KT/KT) (MB)    (FT/S)
CHAMBERS ISLAND  0140   34      80/  8/ 12 1010.5F
NORTHPORT PIER   0100   35     110/ 16/ 19 1011.2R
SISTER BAY       0143          110/  9/ 16   N/A
ALGOMA LAKESHORE 0115          120/ 22/ 26   N/A
KEWAUNEE LAKESHO 0100   36     110/ 18/ 22 1008.1F
SHEBOYGAN LAKESH 0200   38 36  120/ 25/ 29 1007.0F
PORT WASHINGTON  0140   39     130/ 18/ 23 1007.1F
MILWAUKEE LAKESH 0100   38     120/ 17/ 20   N/A
KENOSHA   LAKESH 0200   39     150/ 17/ 21 1005.1F
$$

TC  - TEMPERATURE IN CELSIUS
VSB - VISIBILITY IN STATUTE MILES
WCI - WIND CHILL INDEX
HX  - HEAT INDEX



USA.gov is the U.S. government's official web portal to all federal, state and local government web resources and services.